TimeCDT,TemperatureF,Dew PointF,Humidity,Sea Level PressureIn,VisibilityMPH,Wind Direction,Wind SpeedMPH,Gust SpeedMPH,PrecipitationIn,Events,Conditions,WindDirDegrees,DateUTC
12:46 AM,78.8,75.2,89,29.92,5.0,SE,5.8,-,N/A,Rain,Light Rain,140,2013-09-04 05:46:00
1:07 AM,73.4,71.6,94,29.93,1.0,SSE,16.1,-,N/A,Rain,Rain,160,2013-09-04 06:07:00
1:40 AM,73.4,71.6,94,29.91,5.0,NE,2.3,-,N/A,Rain,Light Rain,40,2013-09-04 06:40:00
2:40 AM,73.4,73.4,100,29.90,5.0,NNW,3.5,-,N/A,Rain,Light Rain,330,2013-09-04 07:40:00
3:40 AM,73.4,73.4,100,29.88,5.0,SW,4.6,-,N/A,Rain,Light Rain,220,2013-09-04 08:40:00
4:40 AM,73.4,71.6,94,29.91,2.0,SSW,16.1,-,N/A,Rain,Rain,210,2013-09-04 09:40:00
5:44 AM,73.4,71.6,94,29.90,5.0,SSW,4.6,-,N/A,Rain,Light Rain,200,2013-09-04 10:44:00
6:43 AM,73.4,71.6,94,29.90,5.0,Calm,Calm,-,N/A,Rain,Light Rain,0,2013-09-04 11:43:00
7:50 AM,73.4,71.6,94,29.92,6.0,Calm,Calm,-,N/A,,Overcast,0,2013-09-04 12:50:00
8:45 AM,73.4,73.4,100,29.94,6.0,Calm,Calm,-,N/A,,Overcast,0,2013-09-04 13:45:00
9:41 AM,77.0,75.2,94,29.97,7.0,Calm,Calm,-,N/A,,Mostly Cloudy,0,2013-09-04 14:41:00
10:44 AM,82.4,77.0,84,29.98,6.0,NE,3.5,-,N/A,,Mostly Cloudy,50,2013-09-04 15:44:00
11:44 AM,86.0,75.2,70,29.97,6.0,SE,11.5,-,N/A,,Mostly Cloudy,140,2013-09-04 16:44:00
12:40 PM,86.0,77.0,74,29.97,6.0,SE,13.8,-,N/A,,Mostly Cloudy,140,2013-09-04 17:40:00
1:49 PM,80.6,73.4,79,29.94,6.0,SSW,2.3,-,N/A,,Mostly Cloudy,210,2013-09-04 18:49:00
2:43 PM,82.4,77.0,84,29.93,6.0,Calm,Calm,-,N/A,,Mostly Cloudy,0,2013-09-04 19:43:00
3:44 PM,82.4,77.0,84,29.92,6.0,NW,5.8,-,N/A,,Overcast,320,2013-09-04 20:44:00
4:42 PM,82.4,78.8,89,29.91,6.0,Calm,Calm,-,N/A,,Overcast,0,2013-09-04 21:42:00
5:44 PM,82.4,78.8,89,29.91,6.0,ENE,4.6,-,N/A,,Overcast,60,2013-09-04 22:44:00
6:42 PM,80.6,78.8,94,29.92,7.0,East,2.3,-,N/A,,Mostly Cloudy,80,2013-09-04 23:42:00
7:40 PM,80.6,77.0,89,29.94,7.0,NE,2.3,-,N/A,,Mostly Cloudy,50,2013-09-05 00:40:00
8:40 PM,78.8,77.0,94,29.95,7.0,Calm,Calm,-,N/A,,Scattered Clouds,0,2013-09-05 01:40:00
9:45 PM,78.8,77.0,94,29.98,6.0,ENE,2.3,-,N/A,,Scattered Clouds,60,2013-09-05 02:45:00
10:42 PM,78.8,77.0,94,29.98,6.0,ENE,2.3,-,N/A,,Scattered Clouds,60,2013-09-05 03:42:00
11:43 PM,78.8,75.2,89,29.97,6.0,Calm,Calm,-,N/A,,Scattered Clouds,0,2013-09-05 04:43:00